Simultaneous Nadir Overpasses (SNOs) Predictions

Prediction of SNOs near US between AQUA and NPP Satellite Orbit:

Table of predicted SNOs near US for the next 10.0 days since TLE Epoch: 9/6/2019
Index Date (AQUA) Time (AQUA) AQUA Lat,Lon Date (NPP) Time (NPP) NPP Lat,Lon Distance(km) Time Diff (sec)
1 09/08/2019 18:16:45 49.97, -80.16 09/08/2019 18:10:52 49.71, -81.77 119.24 353
2 09/08/2019 19:55:38 49.97,-104.88 09/08/2019 19:52:20 49.60,-107.10 164.47 198
3 09/08/2019 21:30:49 36.73,-124.99 09/08/2019 21:29:59 36.22,-127.59 239.54 50
4 09/11/2019 09:23:14 23.89,-113.31 09/11/2019 09:15:58 23.98,-113.76 46.60 436
5 09/14/2019 06:30:07 46.34, -65.03 09/14/2019 06:30:52 46.74, -67.03 159.25 45
6 09/14/2019 08:08:00 49.91, -88.33 09/14/2019 08:11:18 50.42, -90.83 186.61 198
7 09/14/2019 09:46:53 49.91,-113.05 09/14/2019 09:52:46 50.53,-116.15 231.01 353
8 09/16/2019 19:06:09 49.96, -92.51 09/16/2019 19:01:35 49.63, -94.41 141.54 274




NCC Satellite Simultaneous Nadir Overpasses (SNOs) Prediction Service
